Tracking 19283 objects as of 18-Nov-2018
HD Live streaming from Space Station
objects crossing your sky now

STTW-T2

Track STTW-T2 now!
STTW-T2 is classified as:


NORAD ID: 14899
Int'l Code: 1984-035A
Perigee: 35,746.4 km
Apogee: 35,787.0 km
Inclination: 13.8 °
Period: 1,434.7 minutes
Semi major axis: 42137 km
RCS: 3.981 m2 (large)
Launch date: April 8, 1984
Source: People's Republic of China (PRC)
Launch site: Xichang Space Center, China (XSC)
aabbcc
Your satellite tracking list
Your tracking list is empty




NASA's NSSDC Master Catalog

Two Line Element Set (TLE):
1 14899U 84035A   18321.18209786  .00000098  00000-0  00000+0 0  9993
2 14899  13.7896 341.1157 0004821 109.7861  77.7407  1.00368292102327
Source of the keplerian elements: AFSPC